TimeEDT,TemperatureF,Dew PointF,Humidity,Sea Level PressureIn,VisibilityMPH,Wind Direction,Wind SpeedMPH,Gust SpeedMPH,PrecipitationIn,Events,Conditions,WindDirDegrees,DateUTC
12:16 AM,55.4,53.6,94,30.17,4.0,Calm,Calm,-,N/A,,Overcast,0,2013-04-17 04:16:00
12:51 AM,55.9,54.0,93,30.18,3.0,Calm,Calm,-,N/A,,Mostly Cloudy,0,2013-04-17 04:51:00
1:21 AM,53.6,53.6,100,30.16,1.0,Calm,Calm,-,N/A,,Mostly Cloudy,0,2013-04-17 05:21:00
1:39 AM,55.4,53.6,94,30.17,1.0,NNW,3.5,-,N/A,,Mostly Cloudy,330,2013-04-17 05:39:00
1:42 AM,55.4,53.6,94,30.17,0.2,NNW,5.8,-,N/A,,Mostly Cloudy,330,2013-04-17 05:42:00
1:51 AM,55.0,53.1,93,30.19,0.2,NNW,6.9,-,N/A,,Overcast,340,2013-04-17 05:51:00
2:51 AM,54.0,51.1,90,30.18,5.0,North,9.2,-,N/A,,Overcast,360,2013-04-17 06:51:00
3:42 AM,53.6,50.0,88,30.18,6.0,Calm,Calm,-,N/A,,Overcast,0,2013-04-17 07:42:00
3:51 AM,53.1,50.0,89,30.20,6.0,North,4.6,-,N/A,,Overcast,360,2013-04-17 07:51:00
4:51 AM,52.0,48.9,89,30.22,5.0,NNW,5.8,-,N/A,,Overcast,340,2013-04-17 08:51:00
5:51 AM,52.0,48.9,89,30.22,5.0,North,8.1,-,N/A,,Overcast,360,2013-04-17 09:51:00
6:51 AM,51.1,46.0,83,30.23,7.0,NE,5.8,-,N/A,,Overcast,50,2013-04-17 10:51:00
7:51 AM,52.0,45.0,77,30.27,10.0,North,9.2,-,N/A,,Overcast,10,2013-04-17 11:51:00
8:51 AM,51.1,45.0,80,30.28,10.0,NE,10.4,-,N/A,,Overcast,40,2013-04-17 12:51:00
9:51 AM,53.1,44.1,71,30.28,10.0,NE,9.2,-,N/A,,Overcast,40,2013-04-17 13:51:00
10:51 AM,57.0,44.1,62,30.28,10.0,NE,5.8,-,N/A,,Overcast,40,2013-04-17 14:51:00
11:51 AM,59.0,44.1,58,30.27,10.0,ESE,6.9,-,N/A,,Overcast,110,2013-04-17 15:51:00
12:51 PM,62.1,44.1,52,30.25,10.0,Calm,Calm,-,N/A,,Mostly Cloudy,0,2013-04-17 16:51:00
1:41 PM,62.6,46.4,55,30.22,10.0,Calm,Calm,-,N/A,,Mostly Cloudy,0,2013-04-17 17:41:00
1:51 PM,64.0,46.0,52,30.24,10.0,Variable,3.5,-,N/A,,Mostly Cloudy,0,2013-04-17 17:51:00
2:51 PM,64.9,48.0,54,30.22,10.0,SE,4.6,-,N/A,,Mostly Cloudy,140,2013-04-17 18:51:00
3:51 PM,66.0,48.9,54,30.20,10.0,SSW,9.2,-,N/A,,Mostly Cloudy,200,2013-04-17 19:51:00
4:51 PM,66.9,50.0,54,30.19,10.0,South,6.9,-,N/A,,Mostly Cloudy,180,2013-04-17 20:51:00
5:51 PM,66.9,50.0,54,30.19,10.0,SSE,5.8,-,N/A,,Mostly Cloudy,150,2013-04-17 21:51:00
6:51 PM,66.0,51.1,59,30.17,10.0,SSE,6.9,-,N/A,,Mostly Cloudy,160,2013-04-17 22:51:00
7:51 PM,64.9,52.0,63,30.16,10.0,SSE,3.5,-,N/A,,Mostly Cloudy,160,2013-04-17 23:51:00
8:51 PM,64.0,52.0,65,30.18,10.0,South,3.5,-,N/A,,Scattered Clouds,190,2013-04-18 00:51:00
9:51 PM,60.1,52.0,75,30.18,10.0,ESE,3.5,-,N/A,,Mostly Cloudy,110,2013-04-18 01:51:00
10:51 PM,62.1,53.1,72,30.12,10.0,SE,11.5,-,N/A,,Overcast,130,2013-04-18 02:51:00
11:51 PM,62.1,53.1,72,30.12,10.0,SE,9.2,-,N/A,,Overcast,130,2013-04-18 03:51:00